Location: �terpigny
(49.8910°N, 2.9249°E)
Time: 05:59:36
(UTC+00:00)

Cosmos 1908 - Pass Details

Date: 31 May 2022
Orbit: 505 x 523 km, 82.5° (Epoch: 03 July)

Event Time Altitude Azimuth Distance (km) Brightness Sun altitude
Rises 22:13:10 0° 1° (N) 2,623 8.1 -15.2°
Reaches altitude 10° 22:15:43 10° 18° (NNE) 1,732 6.6 -15.4°
Maximum altitude 22:18:39 21° 69° (ENE) 1,187 5.0 -15.5°
Enters shadow 22:20:23 16° 104° (ESE) 1,400 5.1 -15.6°
